TimeEDT,TemperatureF,Dew PointF,Humidity,Sea Level PressureIn,VisibilityMPH,Wind Direction,Wind SpeedMPH,Gust SpeedMPH,PrecipitationIn,Events,Conditions,WindDirDegrees,DateUTC
12:53 AM,46.9,30.0,52,29.93,10.0,WNW,9.2,-,N/A,,Clear,300,2013-10-25 04:53:00
1:53 AM,46.0,30.0,54,29.94,10.0,WNW,6.9,-,N/A,,Clear,300,2013-10-25 05:53:00
2:53 AM,45.0,30.0,56,29.94,10.0,WNW,5.8,-,N/A,,Clear,300,2013-10-25 06:53:00
3:53 AM,45.0,30.0,56,29.94,10.0,WNW,6.9,-,N/A,,Clear,300,2013-10-25 07:53:00
4:53 AM,43.0,30.0,60,29.97,10.0,WNW,5.8,-,N/A,,Clear,300,2013-10-25 08:53:00
5:53 AM,39.9,30.0,68,29.99,10.0,NW,4.6,-,N/A,,Clear,310,2013-10-25 09:53:00
6:53 AM,41.0,30.9,67,30.00,10.0,NW,4.6,-,N/A,,Clear,310,2013-10-25 10:53:00
7:53 AM,44.1,33.1,65,30.02,10.0,NW,6.9,-,N/A,,Clear,310,2013-10-25 11:53:00
8:53 AM,48.0,34.0,58,30.04,10.0,NW,13.8,-,N/A,,Clear,320,2013-10-25 12:53:00
9:53 AM,48.9,34.0,56,30.04,10.0,WNW,12.7,-,N/A,,Clear,300,2013-10-25 13:53:00
10:53 AM,50.0,30.9,48,30.04,10.0,WNW,11.5,-,N/A,,Clear,290,2013-10-25 14:53:00
11:53 AM,52.0,27.0,38,30.02,10.0,NW,12.7,-,N/A,,Clear,320,2013-10-25 15:53:00
12:53 PM,52.0,30.0,43,30.01,10.0,NW,12.7,-,N/A,,Partly Cloudy,320,2013-10-25 16:53:00
1:53 PM,54.0,28.9,38,30.00,10.0,WNW,15.0,20.7,N/A,,Scattered Clouds,300,2013-10-25 17:53:00
2:53 PM,52.0,28.0,40,30.01,10.0,NW,12.7,19.6,N/A,,Mostly Cloudy,310,2013-10-25 18:53:00
3:53 PM,50.0,26.1,39,30.03,10.0,WNW,11.5,24.2,N/A,,Scattered Clouds,290,2013-10-25 19:53:00
4:53 PM,48.9,26.1,41,30.04,10.0,NW,11.5,18.4,N/A,,Clear,320,2013-10-25 20:53:00
5:53 PM,45.0,27.0,49,30.06,10.0,NNW,4.6,-,N/A,,Partly Cloudy,340,2013-10-25 21:53:00
6:53 PM,43.0,26.1,51,30.09,10.0,NW,6.9,-,N/A,,Clear,310,2013-10-25 22:53:00
7:53 PM,46.9,27.0,46,30.11,10.0,WNW,10.4,-,N/A,,Clear,300,2013-10-25 23:53:00
8:53 PM,46.9,27.0,46,30.13,10.0,NW,11.5,-,N/A,,Clear,310,2013-10-26 00:53:00
9:53 PM,46.0,28.0,50,30.15,10.0,NNW,11.5,-,N/A,,Clear,330,2013-10-26 01:53:00
10:53 PM,44.1,28.0,53,30.17,10.0,NW,10.4,-,N/A,,Clear,320,2013-10-26 02:53:00
11:53 PM,42.1,27.0,55,30.18,10.0,WNW,4.6,-,N/A,,Clear,300,2013-10-26 03:53:00